Time,TemperatureF,DewpointF,PressureIn,WindDirection,WindDirectionDegrees,WindSpeedMPH,WindSpeedGustMPH,Humidity,HourlyPrecipIn,Conditions,Clouds,dailyrainin,SolarRadiationWatts/m^2,SoftwareType,DateUTC
2013-02-26 00:02:00,53.0,35.0,-100.00,ESE,115,3.0,9.0,50,0.00,,,-99.99,0.000000,,2013-02-26 06:02:00,
2013-02-26 00:32:00,54.0,40.0,-100.00,SE,134,4.0,9.0,59,0.00,,,0.00,0.000000,,2013-02-26 06:32:00,
2013-02-26 00:42:00,54.0,40.0,-100.00,SE,134,4.0,9.0,59,0.00,,,0.00,0.000000,,2013-02-26 06:42:00,
2013-02-26 00:52:00,54.0,40.0,-100.00,SE,134,4.0,9.0,59,0.00,,,0.00,0.000000,,2013-02-26 06:52:00,
2013-02-26 01:01:00,54.0,40.0,-100.00,SE,134,4.0,9.0,59,0.00,,,0.00,0.000000,,2013-02-26 07:01:00,
2013-02-26 01:32:00,54.0,45.0,-100.00,SSE,147,5.0,12.0,71,0.00,,,0.00,0.000000,,2013-02-26 07:32:00,
2013-02-26 01:42:00,54.0,45.0,-100.00,SSE,147,5.0,12.0,71,0.00,,,0.00,0.000000,,2013-02-26 07:42:00,
2013-02-26 01:52:00,54.0,45.0,-100.00,SSE,147,5.0,12.0,71,0.00,,,0.00,0.000000,,2013-02-26 07:52:00,
2013-02-26 02:02:00,54.0,45.0,-100.00,SSE,147,5.0,12.0,71,0.00,,,0.00,0.000000,,2013-02-26 08:02:00,
2013-02-26 02:32:00,54.0,46.0,-100.00,SE,145,5.0,12.0,74,0.00,,,0.00,0.000000,,2013-02-26 08:32:00,
2013-02-26 02:42:00,54.0,46.0,-100.00,SE,145,5.0,12.0,74,0.00,,,0.00,0.000000,,2013-02-26 08:42:00,
2013-02-26 02:52:00,54.0,46.0,-100.00,SE,145,5.0,12.0,74,0.00,,,0.00,0.000000,,2013-02-26 08:52:00,
2013-02-26 03:02:00,54.0,46.0,-100.00,SE,145,5.0,12.0,74,0.00,,,0.00,0.000000,,2013-02-26 09:02:00,
2013-02-26 03:32:00,51.0,48.0,-100.00,SE,143,5.0,17.0,88,0.07,,,0.07,0.000000,,2013-02-26 09:32:00,
2013-02-26 03:43:00,51.0,48.0,-100.00,SE,143,5.0,17.0,88,0.07,,,0.07,0.000000,,2013-02-26 09:43:00,
2013-02-26 03:52:00,51.0,48.0,-100.00,SE,143,5.0,17.0,88,0.07,,,0.07,0.000000,,2013-02-26 09:52:00,
2013-02-26 04:01:00,51.0,48.0,-100.00,SE,143,5.0,17.0,88,0.07,,,0.07,0.000000,,2013-02-26 10:01:00,
2013-02-26 04:32:00,51.0,50.0,-100.00,SSE,150,5.0,10.0,97,0.07,,,-99.99,0.000000,,2013-02-26 10:32:00,
2013-02-26 04:42:00,51.0,50.0,-100.00,SSE,150,5.0,10.0,97,0.07,,,-99.99,0.000000,,2013-02-26 10:42:00,
2013-02-26 04:52:00,51.0,50.0,-100.00,SSE,150,5.0,10.0,97,0.07,,,-99.99,0.000000,,2013-02-26 10:52:00,
2013-02-26 05:01:00,51.0,50.0,-100.00,SSE,150,5.0,10.0,97,0.07,,,-99.99,0.000000,,2013-02-26 11:01:00,
2013-02-26 05:32:00,51.0,50.0,-100.00,SE,142,4.0,11.0,96,0.04,,,0.18,0.000000,,2013-02-26 11:32:00,
2013-02-26 05:42:00,51.0,50.0,-100.00,SE,142,4.0,11.0,96,0.04,,,0.18,0.000000,,2013-02-26 11:42:00,
2013-02-26 05:52:00,51.0,50.0,-100.00,SE,142,4.0,11.0,96,0.04,,,0.18,0.000000,,2013-02-26 11:52:00,
2013-02-26 06:01:00,51.0,50.0,-100.00,SE,142,4.0,11.0,96,0.04,,,0.18,0.000000,,2013-02-26 12:01:00,
2013-02-26 06:32:00,51.0,48.0,-100.00,South,170,6.0,17.0,90,0.00,,,0.18,0.000000,,2013-02-26 12:32:00,
2013-02-26 06:42:00,51.0,48.0,-100.00,South,170,6.0,17.0,90,0.00,,,0.18,0.000000,,2013-02-26 12:42:00,
2013-02-26 06:53:00,51.0,48.0,-100.00,South,170,6.0,17.0,90,0.00,,,0.18,0.000000,,2013-02-26 12:53:00,
2013-02-26 07:01:00,51.0,48.0,-100.00,South,170,6.0,17.0,90,0.00,,,0.18,0.000000,,2013-02-26 13:01:00,
2013-02-26 07:32:00,52.0,49.0,-100.00,SSE,151,6.0,14.0,89,0.00,,,0.18,3.000000,,2013-02-26 13:32:00,
2013-02-26 07:42:00,52.0,49.0,-100.00,SSE,151,6.0,14.0,89,0.00,,,0.18,3.000000,,2013-02-26 13:42:00,
2013-02-26 07:52:00,52.0,49.0,-100.00,SSE,151,6.0,14.0,89,0.00,,,0.18,3.000000,,2013-02-26 13:52:00,
2013-02-26 08:01:00,52.0,49.0,-100.00,SSE,151,6.0,14.0,89,0.00,,,0.18,3.000000,,2013-02-26 14:01:00,
2013-02-26 08:32:00,52.0,48.0,-100.00,SSE,159,5.0,16.0,87,0.00,,,0.18,14.000000,,2013-02-26 14:32:00,
2013-02-26 08:42:00,52.0,48.0,-100.00,SSE,159,5.0,16.0,87,0.00,,,0.18,14.000000,,2013-02-26 14:42:00,
2013-02-26 08:52:00,52.0,48.0,-100.00,SSE,159,5.0,16.0,87,0.00,,,0.18,14.000000,,2013-02-26 14:52:00,
2013-02-26 09:02:00,52.0,48.0,-100.00,SSE,159,5.0,16.0,87,0.00,,,0.18,14.000000,,2013-02-26 15:02:00,
2013-02-26 09:32:00,52.0,48.0,-100.00,South,169,6.0,17.0,85,0.00,,,0.18,27.000000,,2013-02-26 15:32:00,
2013-02-26 09:42:00,52.0,48.0,-100.00,South,169,6.0,17.0,85,0.00,,,0.18,27.000000,,2013-02-26 15:42:00,
2013-02-26 09:52:00,52.0,48.0,-100.00,South,169,6.0,17.0,85,0.00,,,0.18,27.000000,,2013-02-26 15:52:00,
2013-02-26 10:01:00,52.0,48.0,-100.00,South,169,6.0,17.0,85,0.00,,,0.18,27.000000,,2013-02-26 16:01:00,
2013-02-26 10:32:00,50.0,49.0,-100.00,SSW,212,9.0,17.0,95,0.09,,,0.27,33.000000,,2013-02-26 16:32:00,
2013-02-26 10:42:00,50.0,49.0,-100.00,SSW,212,9.0,17.0,95,0.09,,,0.27,33.000000,,2013-02-26 16:42:00,
2013-02-26 10:52:00,50.0,49.0,-100.00,SSW,212,9.0,17.0,95,0.09,,,0.27,33.000000,,2013-02-26 16:52:00,
2013-02-26 11:01:00,50.0,49.0,-100.00,SSW,212,9.0,17.0,95,0.09,,,0.27,33.000000,,2013-02-26 17:01:00,
2013-02-26 11:32:00,51.0,49.0,-100.00,SSW,209,9.0,16.0,92,0.02,,,0.29,89.000000,,2013-02-26 17:32:00,
2013-02-26 11:42:00,51.0,49.0,-100.00,SSW,209,9.0,16.0,92,0.02,,,0.29,89.000000,,2013-02-26 17:42:00,
2013-02-26 11:52:00,51.0,49.0,-100.00,SSW,209,9.0,16.0,92,0.02,,,0.29,89.000000,,2013-02-26 17:52:00,
2013-02-26 12:01:00,51.0,49.0,-100.00,SSW,209,9.0,16.0,92,0.02,,,0.29,89.000000,,2013-02-26 18:01:00,
2013-02-26 12:32:00,49.0,47.0,-100.00,SW,218,10.0,16.0,92,0.01,,,0.30,70.000000,,2013-02-26 18:32:00,
2013-02-26 12:42:00,49.0,47.0,-100.00,SW,218,10.0,16.0,92,0.01,,,0.30,70.000000,,2013-02-26 18:42:00,
2013-02-26 12:52:00,49.0,47.0,-100.00,SW,218,10.0,16.0,92,0.01,,,0.30,70.000000,,2013-02-26 18:52:00,
2013-02-26 13:01:00,49.0,47.0,-100.00,SW,218,10.0,16.0,92,0.01,,,0.30,70.000000,,2013-02-26 19:01:00,
2013-02-26 13:32:00,48.0,43.0,-100.00,SW,219,13.0,24.0,84,0.01,,,0.31,94.000000,,2013-02-26 19:32:00,
2013-02-26 13:42:00,48.0,43.0,-100.00,SW,219,13.0,24.0,84,0.01,,,0.31,94.000000,,2013-02-26 19:42:00,
2013-02-26 13:52:00,48.0,43.0,-100.00,SW,219,13.0,24.0,84,0.01,,,0.31,94.000000,,2013-02-26 19:52:00,
2013-02-26 14:01:00,48.0,43.0,-100.00,SW,219,13.0,24.0,84,0.01,,,0.31,94.000000,,2013-02-26 20:01:00,
2013-02-26 16:32:00,46.0,35.0,-100.00,SW,220,10.0,24.0,66,-99.99,,,0.31,98.000000,,2013-02-26 22:32:00,
2013-02-26 16:42:00,46.0,35.0,-100.00,SW,220,10.0,24.0,66,-99.99,,,0.31,98.000000,,2013-02-26 22:42:00,
2013-02-26 16:52:00,46.0,35.0,-100.00,SW,220,10.0,24.0,66,-99.99,,,0.31,98.000000,,2013-02-26 22:52:00,
2013-02-26 17:01:00,46.0,35.0,-100.00,SW,220,10.0,24.0,66,-99.99,,,0.31,98.000000,,2013-02-26 23:01:00,
2013-02-26 17:32:00,44.0,37.0,-100.00,SW,223,10.0,19.0,75,0.00,,,0.31,20.000000,,2013-02-26 23:32:00,
2013-02-26 17:42:00,44.0,37.0,-100.00,SW,223,10.0,19.0,75,0.00,,,0.31,20.000000,,2013-02-26 23:42:00,
2013-02-26 17:52:00,44.0,37.0,-100.00,SW,223,10.0,19.0,75,0.00,,,0.31,20.000000,,2013-02-26 23:52:00,
2013-02-26 18:01:00,44.0,37.0,-100.00,SW,223,10.0,19.0,75,0.00,,,0.31,20.000000,,2013-02-27 00:01:00,
2013-02-26 18:32:00,43.0,36.0,-100.00,SW,221,12.0,20.0,77,0.01,,,0.32,2.000000,,2013-02-27 00:32:00,
2013-02-26 18:42:00,43.0,36.0,-100.00,SW,221,12.0,20.0,77,0.01,,,0.32,2.000000,,2013-02-27 00:42:00,
2013-02-26 18:52:00,43.0,36.0,-100.00,SW,221,12.0,20.0,77,0.01,,,0.32,2.000000,,2013-02-27 00:52:00,
2013-02-26 19:01:00,43.0,36.0,-100.00,SW,221,12.0,20.0,77,0.01,,,0.32,2.000000,,2013-02-27 01:01:00,
2013-02-26 19:32:00,42.0,38.0,-100.00,SW,224,14.0,21.0,85,0.00,,,0.32,0.000000,,2013-02-27 01:32:00,
2013-02-26 19:42:00,42.0,38.0,-100.00,SW,224,14.0,21.0,85,0.00,,,0.32,0.000000,,2013-02-27 01:42:00,
2013-02-26 19:52:00,42.0,38.0,-100.00,SW,224,14.0,21.0,85,0.00,,,0.32,0.000000,,2013-02-27 01:52:00,
2013-02-26 20:01:00,42.0,38.0,-100.00,SW,224,14.0,21.0,85,0.00,,,0.32,0.000000,,2013-02-27 02:01:00,
2013-02-26 20:32:00,40.0,36.0,-100.00,SW,221,9.0,22.0,87,0.01,,,0.33,0.000000,,2013-02-27 02:32:00,
2013-02-26 20:42:00,40.0,36.0,-100.00,SW,221,9.0,22.0,87,0.01,,,0.33,0.000000,,2013-02-27 02:42:00,
2013-02-26 20:52:00,40.0,36.0,-100.00,SW,221,9.0,22.0,87,0.01,,,0.33,0.000000,,2013-02-27 02:52:00,
2013-02-26 21:02:00,40.0,36.0,-100.00,SW,221,9.0,22.0,87,0.01,,,0.33,0.000000,,2013-02-27 03:02:00,
2013-02-26 21:32:00,40.0,38.0,-100.00,SW,226,10.0,18.0,91,0.01,,,0.34,0.000000,,2013-02-27 03:32:00,
2013-02-26 21:42:00,40.0,38.0,-100.00,SW,226,10.0,18.0,91,0.01,,,0.34,0.000000,,2013-02-27 03:42:00,
2013-02-26 21:52:00,40.0,38.0,-100.00,SW,226,10.0,18.0,91,0.01,,,0.34,0.000000,,2013-02-27 03:52:00,
2013-02-26 22:01:00,40.0,38.0,-100.00,SW,226,10.0,18.0,91,0.01,,,0.34,0.000000,,2013-02-27 04:01:00,
2013-02-26 22:32:00,39.0,36.0,-100.00,SW,225,8.0,17.0,90,0.01,,,0.35,0.000000,,2013-02-27 04:32:00,
2013-02-26 22:42:00,39.0,36.0,-100.00,SW,225,8.0,17.0,90,0.01,,,0.35,0.000000,,2013-02-27 04:42:00,
2013-02-26 22:52:00,39.0,36.0,-100.00,SW,225,8.0,17.0,90,0.01,,,0.35,0.000000,,2013-02-27 04:52:00,
2013-02-26 23:01:00,39.0,36.0,-100.00,SW,225,8.0,17.0,90,0.01,,,0.35,0.000000,,2013-02-27 05:01:00,
2013-02-26 23:32:00,39.0,35.0,-100.00,SW,227,10.0,18.0,84,0.00,,,0.35,0.000000,,2013-02-27 05:32:00,
2013-02-26 23:42:00,39.0,35.0,-100.00,SW,227,10.0,18.0,84,0.00,,,0.35,0.000000,,2013-02-27 05:42:00,
2013-02-26 23:52:00,39.0,35.0,-100.00,SW,227,10.0,18.0,84,0.00,,,0.35,0.000000,,2013-02-27 05:52:00,